Regional Weather Roundup
Issued by NWS

Home | Current Version | Previous Version | Text Only | Print | Product List | Glossary On
Versions: 1 2 3 4 5 6 7 8 9 10 11 12 13 14 15 16 17 18 19 20 21 22 23 24 25 26 27 28 29 30 31 32 33 34 35 36 37 38 39 40 41 42 43 44 45 46 47 48 49 50
000
ASUS44 KOUN 211910
RWROK

WEATHER ROUNDUP FOR OKLAHOMA
NATIONAL WEATHER SERVICE NORMAN OK
100 PM CST WED FEB 21 2018

NOTE: "FAIR" INDICATES FEW OR NO CLOUDS BELOW 12,000 FEET WITH NO
      SIGNIFICANT WEATHER AND/OR OBSTRUCTIONS TO VISIBILITY.

OKZ001>007-009>012-014-015-017-212000-
NORTHWEST OKLAHOMA AND THE PANHANDLE

CITY           SKY/WX    TMP DP  RH WIND       PRES   REMARKS
GAGE           PTSUNNY   27   6  41 NE17G26   30.39F WCI  14
GUYMON         CLOUDY    22   8  55 N10       30.37F WCI  11
ENID/WOODRING  CLOUDY    25  21  86 N18       30.41F WCI  11
$$

OKZ016-021>023-033>039-044-045-212000-
SOUTHWEST OKLAHOMA

CITY           SKY/WX    TMP DP  RH WIND       PRES   REMARKS
LAWTON/REGL    MIX PCPN  25  22  88 NE22      30.35F FOG     WCI  10
LAWTON/FT SILL LGTSLEET  24  24  99 N17G24    30.33F FOG     WCI  10
FREDERICK      MIX PCPN  25  21  85 N21       30.28F FOG     WCI  11
CLINTON        CLOUDY    22  16  78 N21       30.35F WCI   6
HOBART         MIX PCPN  23  19  85 NE17      30.36R FOG     WCI   9
ALTUS AFB      FRZ RAIN  24  19  82 N16       30.35F WCI  10
$$

OKZ018>020-024>031-212000-
CENTRAL OKLAHOMA

CITY           SKY/WX    TMP DP  RH WIND       PRES   REMARKS
OKLAHOMA CITY  FRZ RAIN  22  19  89 N16       30.37F FOG     WCI   8
OKC/WILEY POST FRZ RAIN  24  21  88 N14       30.38F WCI  12
OKC/TINKER AFB LGTSLEET  22  20  92 N13       30.37F WCI  10
STILLWATER     CLOUDY    24  20  84 N15       30.43F WCI  11
GUTHRIE        CLOUDY    23  20  88 N6        30.41F WCI  16
$$

OKZ008-013-054>072-212000-
NORTHEAST OKLAHOMA

CITY           SKY/WX    TMP DP  RH WIND       PRES   REMARKS
TULSA          FRZ RAIN  28  24  85 N10G21    30.43R WCI  19
TULSA/JONES    CLOUDY    28  23  81 N10G16    30.43S WCI  19
PONCA CITY     CLOUDY    27  18  69 N13       30.46F WCI  16
BARTLESVILLE   CLOUDY    26  22  84 NE13G18   30.46F WCI  15
MUSKOGEE       CLOUDY    31  28  89 N17       30.38S WCI  19
$$

OKZ032-040>043-046>053-073>077-212000-
SOUTH CENTRAL/SOUTHEAST OKLAHOMA

CITY           SKY/WX    TMP DP  RH WIND       PRES   REMARKS
ARDMORE/DWNTWN MIX PCPN  28  27  93 CALM      30.33F
MCALESTER      CLOUDY    30  29  96 N12G21    30.33F FOG     WCI  20
$$





USA.gov is the U.S. government's official web portal to all federal, state and local government web resources and services.